Погода в Вязьме

Погода в Вязьме : погода сейчас, прогноз погоды и архив. Всё, что Вы хотите узнать о погоде в Вязьме!

Поиск расширенной информации на нашем сайте:

Полезная информация:

Другие новости

Новости СМИ2

Главная страница сайта

Новости сайта

03.07.2017

Напоминаем, что на нашем специализированном сайте Метеоцентр.Азия вы можете получить высокодетализированные автоматические прогнозы погоды по пунктам России, СНГ и мира в авиационном формате (включающие направление и скорость ветра, видимость, явления погоды, количество и форму облачности, нижнюю и верхнюю границу облачности).

Рекомендуем:

Погода в Вязьме - сегодня

Время (UTC), дата Ветер
(°,м/с) 
Видим.   Явления Облачность Т
(°С)
Тd
(°С)
f(%) Тe
(°С)
Pmin
(гПа)
dP
(гПа)
Po
(мм)
O2
(г/м3)
Тmin Tmax R s Состояние
почвы
12 15.07.19 190 (Ю) 10 км    10/8 600 м средняя 
[Sc|Ac und]
+16.9 +12 73 +22  1010.7  -0.2  736  277           
15 15.07.19 170 (Ю) 10 км    9/8 600 м кучево-дожд., средняя, верхняя 
[Cb calv|Ac trans|Ci fib]
+17.3 +11.7 70 +22  1010.5  -0.2  736  277           
18 15.07.19 050 (СВ) 10 км  {ливн. осадки}  8/4 600 м кучево-дожд., средняя 
[Cb cap|Ac trans]
+14 +12 88 +19  1011.2  0.4  737  280    +18.5  0.7     
21 15.07.19 350 (С) 4000 м  дымка  6/0 средняя, верхняя 
[Ac trans|Ci fib]
+9.9 +9.2 95 +11  1011.6  0.1  737  285           
00 16.07.19 тихо ()   4000 м  дымка  6/0 средняя 
[Ac trans]
+7.3 +6.8 97 +7  1011.8  737  288           
03 16.07.19 350 (С) 4000 м  дымка{туман}  9/8 300 м средняя 
[Sc|Ac trans]
+11.1 +10.4 95 +14  1010.8  -0.6  736  283  +7.2    0.7     
06 16.07.19 080 (В) 4000 м  слаб. дождь  10/8 300 м средняя 
[Frnb|As op]
+13 +12.3 96 +18  1010.6  736  281  +7.2      мокрая 
09 16.07.19 060 (СВ) 4000 м  слаб. дождь  10/8 300 м средняя 
[Frnb|As op]
+13.8 +12.9 94 +20  1009.8  -0.7  736  280           
12 16.07.19 330 (СЗ) 4000 м  слаб. дождь  10/8 300 м средняя 
[Frnb|As op]
+14.7 +13.6 93 +22  1008.5  -1.2  735  278           
15 16.07.19 180 (Ю) 10 км  {дождь}  8/4 600 м средняя, верхняя 
[Cu Sc|Ac trans|Ci fib]
+17.7 +14.2 80 +27  1007.6  -0.5  734  275         
18 16.07.19 090 (В) 10 км  {дождь}  6/3 600 м средняя, верхняя 
[Cu Sc|Ac trans|Cc]
+15.5 +13.9 90 +24  1007.5  -0.3  734  277    +19.3     
21 16.07.19 090 (В) 4000 м  дымка  6/6 600 м 
[Sc]
+13.7 +12.6 93 +20  1007.6  0.1  734  279           
00 17.07.19 тихо ()   2000 м  дымка  8/8 300 м 
[Sc]
+13.1 +12.3 95 +18  1007.3  -0.4  734  280           
03 17.07.19 120 (ЮВ) 0050 м  туман  ?/?  
+13.1 +12.3 95 +19  1007.2  -0.1  734  280  +12.4         
06 17.07.19 090 (В) 1000 м  дымка{туман}  10/10 200 м 
[St]
+14 +13.3 96 +21  1006.7  -0.4  733  278  +12.4        мокрая 
09 17.07.19 140 (ЮВ) 10 км    8/8 600 м 
[Cu Sc]
+18.1 +14.2 78 +28  1006  -0.2  733  274           
12 17.07.19 110 (В) 10 км    9/8 600 м средняя 
[Cu Sc|Ac trans]
+18.1 +14.3 78 +27  1005.3  -0.7  733  274           
15 17.07.19 150 (ЮВ) 10 км    8/3 1000 м средняя, верхняя 
[Cu med, cong|Ac trans|Cc]
+19.4 +12.1 63 +25  1004.7  -0.5  732  273           
18 17.07.19 100 (В) 4000 м  дымка{гроза, ливн. осадки}  9/8 600 м средняя 
[Sc|Ac trans]
+13.3 +12.4 94 +20  1005.2  0.1  732  279    +20.2  10     
21 17.07.19 200 (Ю) 2000 м  дымка  8/8 300 м 
[Sc]
+12.5 +11.8 95 +18  1005  -0.2  732  280           
00 18.07.19 190 (Ю) 2000 м  дымка  8/8 300 м средняя 
[Sc|Ac trans]
+11.5 +10.8 95 +16  1004.5  -0.6  731  281           
03 18.07.19 210 (ЮЗ) 4000 м  дымка  10/10 300 м 
[Sc]
+12 +11.3 95 +16  1004.1  -0.3  731  280  +11    11     
06 18.07.19 210 (ЮЗ) 10 км  дымка{туман}  9/8 300 м средняя 
[Sc|Ac trans]
+14.1 +12.5 90 +20  1003.7  -0.1  731  278  +11    0.3    мокрая 
09 18.07.19 170 (Ю) 10 км    8/6 300 м средняя, верхняя 
[Sc|Ac trans|Ci fib]
+18.9 +12 64 +24  1003.2  0.1  731  273           
12 18.07.19 140 (ЮВ) 10 км    9/8 600 м кучево-дожд., средняя, верхняя 
[Cb calv|Ac trans|Ci fib]
+18.4 +13.4 73 +26  1003  0.1  731  273           
Время (UTC), дата Ветер
(°,м/с) 
Видим.   Явления Облачность Т
(°С)
Тd
(°С)
f(%) Тe
(°С)
Pmin
(гПа)
dP
(гПа)
Po
(мм)
O2
(г/м3)
Тmin Tmax R s Состояние
почвы

Для получения пояснительной информации подведите курсор к названию столбца.

ПОГОДА в Вязьме - архив

Всё, что Вы хотите узнать о погоде в Вязьме - удобно и подробно!

Выберите нужную дату (начиная с 1 января 2018* года) и нажмите кнопку "Найти".
Будут отображены архивные сводки погоды по пункту Вязьма, начиная с указанной даты.


Отображать данные в формате CSV (для использования в таблицах Excel)


Внимание! Наш архив погоды предназначен исключительно для личного некоммерческого использования в познавательных целях. Если Вам необходимы официальные справки о состоянии погоды (для производственных, юридических, коммерческих и т.п. целей), обращайтесь в органы Росгидромета.

*Примечание: данная дата относится к архиву по метеостанциям СССР (Россия, СНГ, Балтия).
Архив по метеостанциям Зарубежной Европы и Азии (кроме Китая) хранится 10 дней, по другим регионам земного шара (Китай, Африка, Америка, Австралия, Океания) - 1 день.

Вязьма - район местоположения метеостанции


Название, широта, долгота, высота метеостанции:
Вязьма 55.2°ш. 34.4°д. 251 м над ур. моря [Российская Федерация]

Дополнительная информация

В oтличие oт бoльшинства пoгoдных сайтoв мы публикуем пoдрoбную метеoинфoрмацию в детальнoм прoфессиoнальнoм фoрмате.

Характеристики температуры и влажнoсти вoздуха измеряются на высoте 2 м в тени вдали oт зданий и деревьев.
Скoрoсть ветра измеряется на высoте 10 м (на урoвне рoста челoвека скoрoсть ветра ниже в 1.5-2 раза). Если метеoстанция нахoдится в гoрoде или в лесу, тo скoрoсть ветра занижена на 2-4 м/с пo сравнению с oткрытым местoм. Скoрoсть ветра над акватoриями крупных рек и oзёр, а также на вершинах хoлмoв на 2-5 м/с выше, чем в oбычных услoвиях.
Атмoсфернoе давление в разных тoчках местнoсти мoжет значительнo oтличаться oт давления на метеoстанции, в зависимoсти oт услoвий рельефа (при пoдъёме на 10 м давление пoнижается примернo на 1 мм рт.ст.).